Location: San Antonio
(29.4240°N, 98.4930°W)
Time: 00:24:07
(UTC-05:00)

ISS - Pass Details

Date: 22 June 2024
Orbit: 410 x 424 km, 51.6° (Epoch: 12 July)

Event Time Altitude Azimuth Distance (km) Brightness Sun altitude
Exits shadow 05:14:49 21° 284° (WNW) 972 -2.3 -15.5°
Maximum altitude 05:15:59 27° 319° (NW) 838 -2.3 -15.3°
Drops below altitude 10° 05:18:52 10° 19° (NNE) 1,489 -0.1 -14.8°
Sets 05:21:11 0° 32° (NNE) 2,358 1.5 -14.4°
